Wind_Speed
11 10 10 10 10 11 11 11 11 11 11 11 11 12 12 13 14 14 15 15 15 15 14 14 14 14 14 14 15 15 15 14 15 15 14 14 13 13 14 13 13 13 13
11 11 11 11 11 11 11 11 12 11 11 11 11 12 12 13 13 13 14 14 14 14 14 14 14 13 13 14 14 14 14 14 14 14 14 14 13 13 14 14 14 12 13
12 11 11 11 11 11 12 12 12 12 12 12 12 12 12 13 14 14 14 14 14 14 14 14 14 14 14 14 15 15 14 14 13 13 13 13 13 14 14 13 13 13 12
11 11 11 11 12 12 12 12 12 12 12 12 12 12 13 13 13 13 13 14 14 14 15 15 15 15 14 14 14 13 13 13 13 13 13 13 13 13 13 13 13 13 13
12 12 12 12 11 11 11 11 12 13 13 13 13 13 13 14 14 14 14 13 13 14 14 15 15 14 14 14 14 13 12 12 13 13 13 13 13 13 14 14 13 13 14
12 12 12 11 11 11 11 12 12 13 13 13 14 14 14 14 14 14 14 14 14 13 13 13 13 13 13 14 13 13 14 14 13 13 13 13 13 13 14 14 14 14 15
13 13 12 12 12 12 13 13 13 13 13 13 14 13 14 14 14 14 14 14 14 14 14 14 13 13 14 14 14 14 14 14 13 13 13 13 13 14 14 15 15 15 15
13 13 14 14 14 13 14 14 15 15 15 15 14 14 14 14 14 15 15 15 15 15 15 15 15 14 14 14 14 14 14 14 14 14 14 14 14 15 15 15 15 16 16
14 14 15 15 15 15 15 15 16 16 16 16 16 16 15 15 15 15 15 16 16 16 16 16 16 16 15 15 15 15 15 15 15 15 15 15 15 16 16 16 16 16 17
15 15 15 16 16 16 16 16 17 17 17 18 18 17 17 17 16 15 15 16 16 16 16 17 17 17 16 16 17 17 16 16 16 17 16 17 17 17 17 17 17 17 18
16 16 17 17 17 18 18 18 18 18 18 18 18 18 18 18 18 17 16 16 17 17 17 18 18 18 18 17 18 17 17 18 18 18 18 18 18 18 18 19 18 18 19
18 18 19 19 19 19 19 20 20 20 19 19 19 19 19 19 19 19 18 17 18 19 19 19 19 19 18 18 18 18 18 18 19 18 18 18 18 19 19 20 19 19 20
19 19 20 21 21 21 21 21 21 21 21 20 20 20 20 20 20 20 19 19 19 19 19 19 19 19 19 18 19 19 19 19 19 19 19 20 20 20 21 21 20 21 21
20 20 20 21 22 22 22 21 21 21 22 21 21 21 21 21 21 21 20 21 21 20 20 20 20 20 20 20 20 20 20 20 20 20 20 21 22 22 22 23 23 23 22
21 21 21 22 22 22 22 23 22 22 22 22 22 22 22 22 22 22 21 22 21 21 21 22 22 21 21 21 21 21 21 21 21 21 22 22 22 23 23 23 24 24 23
21 21 22 22 22 22 22 23 23 23 22 22 22 22 22 22 22 22 23 23 22 22 22 22 22 22 22 22 22 22 22 22 22 22 23 23 23 24 24 24 24 24 24
22 22 23 23 23 23 23 23 23 23 24 23 24 24 23 23 23 23 23 24 24 23 23 22 23 23 24 24 24 23 23 23 23 23 23 24 24 24 24 25 25 24 24
24 24 24 24 24 24 24 24 23 24 24 25 25 25 24 24 24 24 24 25 25 24 24 24 23 25 25 25 25 25 25 25 25 25 25 25 25 25 25 25 25 25 25
25 25 25 25 25 25 25 25 25 24 25 25 25 26 25 25 25 26 26 26 26 25 25 25 25 25 26 26 26 26 26 26 26 26 26 26 26 26 27 27 27 27 26
25 25 25 26 26 27 27 27 27 27 26 26 25 26 26 26 26 27 27 27 26 26 27 27 27 27 27 27 27 27 27 27 27 27 27 27 28 29 29 28 29 28 28
26 26 26 27 27 28 28 28 27 27 27 26 26 27 26 27 27 28 28 28 28 28 27 27 27 27 27 27 28 28 28 28 28 29 29 29 29 30 30 30 29 28 27
27 28 28 28 28 28 28 28 28 27 27 27 27 27 28 28 29 29 29 29 28 28 28 28 28 28 28 28 28 29 29 29 30 30 30 30 30 29 30 30 29 29 28
29 29 28 28 29 29 29 28 28 28 28 28 29 29 29 29 29 29 29 29 29 29 29 30 30 29 29 29 30 30 30 31 31 31 31 30 30 30 30 30 30 30 30
29 29 29 29 29 29 29 29 29 29 29 29 29 29 30 29 29 30 30 29 29 29 30 30 30 30 31 31 31 31 32 32 32 32 32 31 31 31 31 31 31 31 31
29 28 29 29 30 29 28 28 28 28 28 28 29 30 30 30 30 31 31 31 31 31 32 32 32 31 31 31 32 33 33 33 32 32 33 33 32 32 31 31 31 31 31
29 29 29 29 29 29 28 28 28 28 29 29 30 30 31 31 31 31 32 32 31 32 32 32 33 32 32 32 32 33 33 33 33 33 33 33 33 32 31 31 32 31 31
Wind_Direction
287 287 285 282 281 278 278 279 279 279 280 280 278 276 276 276 276 273 271 272 272 273 274 277 280 282 278 276 273 273 275 272 269 267 268 269 270 268 267 268 263 260 261
288 287 285 284 283 283 282 280 279 278 280 283 284 285 283 280 277 276 275 272 272 272 271 273 274 276 278 276 273 272 276 273 270 269 267 268 268 267 267 271 264 267 265
289 287 286 286 286 284 283 281 280 279 279 281 283 285 286 282 280 279 276 274 273 271 268 267 267 270 273 274 274 274 274 269 269 269 269 267 267 267 267 269 269 271 272
287 286 288 289 290 287 286 283 281 280 278 279 282 286 286 286 286 283 281 278 276 273 270 269 268 267 268 273 272 272 275 270 267 268 270 268 268 269 270 270 271 272 272
285 286 288 290 292 291 291 287 282 281 280 281 283 285 286 286 286 284 284 281 278 275 273 271 269 268 269 273 272 272 273 273 272 270 274 276 275 275 275 272 272 273 273
285 284 286 286 287 288 289 288 288 285 284 284 284 285 287 287 285 283 281 279 279 278 276 273 272 273 275 273 274 276 273 273 276 277 279 280 279 278 276 274 273 272 273
285 282 283 284 284 286 289 289 289 288 285 286 287 288 288 288 284 280 278 277 277 276 275 275 274 275 276 273 274 276 279 278 278 279 279 280 278 278 276 273 272 274 275
283 281 283 285 285 285 286 286 287 288 284 283 285 288 290 288 282 282 279 277 276 275 275 275 275 276 277 274 275 276 277 277 276 276 276 277 278 278 276 275 274 274 275
281 282 284 285 285 287 288 288 289 288 286 285 285 286 285 283 281 282 279 277 276 276 275 273 274 274 274 273 273 274 274 276 276 277 276 277 278 277 277 277 275 275 275
282 283 283 284 284 286 286 288 289 288 286 285 284 284 284 283 281 281 281 279 276 274 272 271 271 271 272 271 271 272 272 274 276 276 275 276 277 276 275 276 277 277 276
280 281 283 285 286 286 286 288 289 288 287 284 283 284 284 283 280 280 279 277 276 276 275 273 271 270 271 271 270 270 271 272 274 276 277 276 275 274 275 276 277 277 276
280 279 281 284 286 287 288 288 288 288 287 285 284 284 284 282 279 277 277 276 276 276 274 273 271 270 269 270 269 270 270 271 273 275 276 276 275 274 278 277 276 277 275
280 280 280 283 285 286 287 288 288 288 287 286 286 284 283 281 279 279 277 277 276 275 274 273 271 271 270 269 269 269 270 272 273 274 275 275 275 277 279 278 276 278 277
282 280 281 284 285 285 284 286 287 287 287 286 285 283 282 281 280 279 277 279 277 276 275 273 270 270 269 268 269 269 270 272 273 274 275 274 275 277 279 279 277 279 279
282 281 282 285 287 286 284 284 285 286 286 286 285 282 283 282 280 277 278 280 280 277 274 272 269 267 268 268 270 271 271 272 273 274 274 276 277 278 279 280 279 279 279
282 283 283 286 287 287 286 285 284 284 283 282 282 282 282 281 279 278 279 280 280 279 277 274 269 269 269 269 270 271 272 273 273 273 274 276 278 278 279 279 278 277 278
282 283 284 285 286 285 286 286 285 283 282 281 281 281 283 281 280 280 280 280 279 279 277 273 270 270 271 271 271 271 272 273 274 274 275 277 278 278 278 278 278 277 277
282 283 284 284 286 286 286 285 284 283 281 280 279 279 281 281 280 280 280 280 278 277 276 275 273 271 270 272 272 272 272 272 272 274 276 276 277 278 278 279 279 278 277
284 283 284 284 284 285 286 284 283 283 282 280 279 279 280 280 280 281 282 281 278 276 276 276 275 273 271 271 273 273 273 272 273 274 276 277 278 279 279 279 280 279 277
284 284 284 284 283 283 284 284 283 281 280 280 279 279 280 280 281 281 281 280 278 278 277 276 277 276 274 273 273 274 274 273 273 274 276 277 278 278 278 278 278 278 276
285 285 286 284 284 284 283 283 283 282 280 279 278 278 278 279 280 281 282 281 280 280 279 276 276 276 275 274 274 274 273 274 274 275 276 277 278 277 277 277 276 277 276
285 287 288 286 285 285 283 283 283 283 281 280 279 279 279 280 280 281 282 281 280 279 277 276 276 276 274 272 273 274 273 274 274 275 276 277 278 278 276 275 275 275 275
284 285 286 286 287 287 285 284 284 282 281 280 280 278 279 279 279 280 280 280 280 279 277 277 277 275 274 273 272 273 274 274 275 276 276 277 277 278 277 276 274 274 274
284 284 284 286 287 288 285 284 283 282 280 279 279 279 278 278 279 279 279 280 280 279 278 278 277 275 274 274 273 273 274 275 275 275 276 276 276 277 277 276 275 274 273
286 286 285 285 286 287 285 283 282 281 280 280 279 279 279 278 278 279 280 279 278 278 278 278 277 276 276 275 274 274 274 275 275 275 276 276 276 275 275 274 274 273 272
286 286 286 287 287 287 286 283 282 282 282 281 281 281 280 279 279 279 279 279 278 278 277 277 276 276 277 276 275 274 274 275 276 276 275 275 275 275 274 273 273 272 272
Height
5853 5853 5853 5852 5852 5852 5852 5851 5851 5851 5850 5850 5850 5850 5850 5850 5850 5850 5850 5850 5851 5851 5851 5851 5851 5850 5849 5848 5849 5850 5851 5852 5852 5853 5854 5854 5854 5855 5855 5856 5856 5857 5857
5851 5851 5850 5850 5850 5849 5849 5849 5849 5848 5848 5848 5848 5847 5847 5847 5847 5847 5847 5847 5848 5848 5848 5848 5848 5847 5846 5845 5846 5847 5848 5849 5849 5850 5851 5851 5851 5852 5852 5853 5853 5854 5854
5849 5848 5848 5848 5847 5847 5847 5846 5846 5846 5846 5846 5845 5845 5845 5844 5844 5844 5844 5844 5844 5845 5845 5845 5845 5844 5844 5844 5844 5845 5845 5845 5846 5846 5847 5848 5848 5848 5849 5850 5850 5850 5851
5846 5846 5846 5845 5845 5844 5844 5843 5843 5843 5843 5842 5842 5842 5842 5841 5841 5841 5841 5841 5841 5841 5842 5842 5842 5842 5842 5842 5842 5842 5842 5842 5843 5843 5844 5844 5844 5845 5846 5846 5847 5847 5848
5844 5843 5843 5843 5842 5842 5841 5841 5840 5840 5840 5839 5839 5839 5838 5838 5838 5838 5838 5838 5838 5838 5838 5838 5839 5839 5839 5839 5840 5839 5839 5839 5840 5840 5841 5841 5841 5842 5842 5843 5843 5844 5844
5841 5841 5840 5840 5839 5839 5838 5838 5837 5837 5836 5836 5836 5835 5835 5835 5834 5834 5834 5835 5835 5835 5835 5835 5835 5836 5836 5836 5837 5837 5837 5836 5837 5837 5837 5838 5838 5838 5838 5839 5840 5840 5841
5838 5838 5837 5837 5837 5836 5836 5835 5835 5834 5833 5833 5833 5832 5832 5831 5831 5831 5831 5831 5831 5832 5832 5832 5832 5832 5833 5833 5833 5834 5834 5834 5834 5834 5834 5834 5835 5835 5835 5836 5836 5837 5837
5835 5835 5834 5834 5833 5833 5833 5832 5832 5831 5830 5830 5829 5829 5829 5829 5827 5827 5827 5827 5828 5828 5828 5828 5828 5829 5829 5830 5830 5830 5831 5831 5831 5831 5831 5831 5831 5832 5832 5832 5832 5833 5833
5832 5831 5831 5831 5830 5830 5829 5829 5828 5827 5827 5826 5825 5825 5825 5824 5824 5823 5823 5823 5823 5824 5824 5824 5824 5825 5825 5826 5826 5826 5827 5827 5827 5828 5828 5828 5828 5828 5828 5828 5828 5829 5829
5828 5828 5827 5827 5827 5826 5826 5825 5824 5823 5823 5822 5821 5820 5820 5820 5820 5819 5819 5819 5819 5819 5819 5819 5820 5820 5821 5822 5822 5822 5823 5823 5823 5823 5824 5824 5824 5824 5824 5824 5824 5824 5824
5824 5824 5824 5823 5823 5822 5821 5821 5820 5819 5818 5817 5816 5816 5815 5815 5814 5815 5815 5814 5814 5814 5814 5814 5815 5816 5816 5817 5818 5818 5818 5818 5819 5819 5819 5819 5819 5819 5819 5819 5819 5819 5820
5820 5820 5819 5819 5818 5818 5817 5816 5815 5814 5813 5812 5811 5811 5810 5810 5809 5809 5809 5809 5809 5809 5808 5809 5809 5810 5811 5812 5812 5813 5813 5813 5814 5814 5814 5814 5814 5814 5814 5814 5814 5814 5815
5815 5815 5814 5814 5813 5812 5812 5811 5810 5809 5808 5807 5806 5805 5805 5804 5804 5804 5804 5804 5804 5803 5803 5803 5804 5805 5806 5806 5807 5807 5808 5808 5808 5809 5809 5809 5809 5809 5809 5809 5809 5809 5809
5810 5810 5809 5808 5808 5807 5806 5805 5804 5804 5802 5801 5801 5800 5799 5799 5798 5798 5798 5798 5797 5797 5797 5798 5798 5799 5800 5801 5801 5802 5803 5803 5803 5803 5803 5804 5804 5804 5804 5804 5803 5803 5803
5804 5804 5803 5803 5802 5801 5800 5799 5799 5798 5797 5796 5795 5794 5794 5793 5792 5792 5792 5791 5792 5791 5792 5792 5792 5793 5794 5795 5796 5796 5797 5797 5797 5797 5798 5798 5798 5798 5798 5797 5797 5797 5797
5799 5798 5797 5797 5796 5795 5794 5793 5793 5792 5791 5790 5789 5789 5788 5788 5787 5786 5786 5785 5785 5785 5785 5786 5786 5787 5788 5789 5790 5790 5791 5791 5791 5792 5792 5792 5792 5791 5791 5791 5791 5791 5790
5793 5792 5791 5791 5790 5789 5788 5787 5786 5785 5785 5784 5784 5783 5782 5782 5781 5780 5780 5779 5779 5779 5779 5780 5780 5781 5782 5783 5783 5784 5785 5785 5785 5785 5785 5785 5785 5785 5785 5785 5784 5784 5784
5787 5786 5785 5784 5784 5783 5782 5781 5780 5779 5778 5778 5777 5777 5776 5775 5775 5775 5774 5773 5773 5773 5773 5774 5774 5774 5775 5776 5776 5777 5778 5778 5778 5778 5779 5779 5778 5778 5778 5778 5778 5777 5777
5781 5780 5779 5778 5777 5776 5775 5774 5773 5772 5771 5771 5770 5770 5769 5769 5769 5768 5767 5767 5766 5766 5766 5767 5767 5767 5768 5769 5769 5769 5770 5771 5771 5771 5771 5771 5771 5771 5770 5770 5770 5770 5769
5774 5773 5772 5771 5770 5769 5768 5767 5765 5765 5764 5764 5763 5763 5762 5762 5761 5761 5760 5760 5759 5759 5759 5759 5759 5760 5760 5761 5761 5762 5762 5763 5763 5763 5763 5763 5763 5763 5762 5762 5762 5761 5761
5768 5766 5765 5764 5763 5762 5760 5759 5758 5757 5756 5756 5756 5755 5755 5754 5754 5753 5753 5752 5751 5751 5751 5751 5751 5752 5752 5753 5753 5753 5754 5755 5755 5755 5755 5755 5755 5755 5754 5754 5753 5753 5753
5761 5759 5758 5757 5755 5754 5753 5751 5750 5749 5748 5748 5748 5748 5747 5747 5746 5745 5745 5744 5743 5743 5743 5743 5743 5743 5743 5744 5744 5745 5745 5746 5747 5747 5746 5747 5746 5746 5746 5745 5745 5745 5744
5753 5752 5750 5749 5748 5746 5745 5743 5742 5741 5741 5740 5740 5740 5739 5739 5738 5737 5736 5736 5735 5734 5734 5734 5734 5734 5734 5735 5735 5736 5736 5736 5737 5737 5737 5737 5737 5737 5737 5736 5736 5736 5736
5745 5744 5743 5741 5740 5738 5737 5735 5734 5733 5732 5732 5732 5731 5731 5730 5729 5729 5728 5728 5727 5726 5726 5725 5725 5725 5725 5725 5725 5726 5726 5727 5728 5728 5727 5727 5728 5727 5727 5726 5726 5726 5726
5737 5736 5735 5733 5732 5731 5729 5727 5726 5725 5724 5724 5723 5723 5722 5721 5721 5720 5720 5719 5719 5718 5717 5716 5716 5716 5715 5715 5715 5716 5716 5717 5718 5718 5717 5717 5717 5717 5717 5717 5716 5716 5716
5729 5728 5727 5725 5724 5722 5721 5719 5717 5717 5716 5716 5715 5714 5713 5712 5711 5710 5710 5710 5709 5709 5708 5707 5707 5706 5706 5706 5706 5706 5706 5707 5707 5708 5707 5707 5707 5707 5707 5707 5706 5706 5706